Fort Wayne, IN

10:09 AM EST on November 20, 2019 (GMT -0500)
Fort Wayne International

Weather History for KFWA - September, 2019

Change the Weather History Date:

Wednesday, September 11, 2019

  Actual Average Record
Temperature  
Mean Temperature 78 °F 66 °F  
Max Temperature 87 °F 78 °F 95 °F (1931)
Min Temperature 68 °F 55 °F 39 °F (1917)
Degree Days  
Heating Degree Days 0 2  
Month to date heating degree days 10 15  
Since 1 July heating degree days 11 27  
Cooling Degree Days 13 3  
Month to date cooling degree days 37 47  
Year to date cooling degree days 875 764  
Growing Degree Days 28 (Base 50)    
Moisture  
Dew Point 70 °F    
Average Humidity 76    
Maximum Humidity 93    
Minimum Humidity 59    
Precipitation  
Precipitation 0.00 in 0.09 in 1.70 in (1975)
Month to date precipitation 0.15 1.05  
Year to date precipitation 28.42 27.89  
Sea Level Pressure  
Sea Level Pressure 30.12 in    
Wind  
Wind Speed 7 mph (SW)    
Max Wind Speed 17 mph    
Max Gust Speed 24 mph    
Visibility 10 miles    
Events      
T = Trace of Precipitation, MM = Missing Value Source: NWS Daily Summary

Daily Weather History Graph

Daily Weather History Graph

Search for Another Location

Airport or City:

Astronomy

Sep. 11, 2019 Rise Set
Actual Time 7:17 AM EDT 7:56 PM EDT
Civil Twilight 6:49 AM EDT 8:24 PM EDT
Nautical Twilight 6:16 AM EDT 8:57 PM EDT
Astronomical Twilight 5:42 AM EDT 9:31 PM EDT
Moon 7:10 PM EDT (9/11) 4:37 AM EDT (9/11)
Length of Visible Light 13h 35m
Length of Day
12h 39m
Waxing Gibbous, 94% of the Moon is Illuminated
Sep 11
Waxing Gibbous
Sep 14
Full
Sep 21
Last Quarter
Sep 28
New
Oct 5
First Quarter

Hourly Weather History & Observations

Time (EDT) Temp. Heat Index Dew Point Humidity Pressure Visibility Wind Dir Wind Speed Gust Speed Precip Events Conditions
12:54 AM 70.0 °F - 66.9 °F 90% 30.13 in 10.0 mi Calm Calm - N/A   Partly Cloudy
1:54 AM 70.0 °F - 66.9 °F 90% 30.14 in 10.0 mi SSW 5.8 mph - N/A   Scattered Clouds
2:54 AM 69.1 °F - 66.9 °F 93% 30.14 in 10.0 mi SSW 5.8 mph - N/A   Scattered Clouds
3:54 AM 69.1 °F - 66.9 °F 93% 30.13 in 10.0 mi SSW 5.8 mph - N/A   Mostly Cloudy
4:54 AM 68.0 °F - 66.0 °F 93% 30.14 in 10.0 mi Calm Calm - N/A   Mostly Cloudy
5:54 AM 70.0 °F - 66.9 °F 90% 30.14 in 10.0 mi SW 4.6 mph - N/A   Mostly Cloudy
6:54 AM 69.1 °F - 66.9 °F 93% 30.15 in 10.0 mi South 5.8 mph - N/A   Mostly Cloudy
7:54 AM 70.0 °F - 66.9 °F 90% 30.16 in 9.0 mi Calm Calm - N/A   Mostly Cloudy
8:54 AM 75.0 °F - 70.0 °F 84% 30.17 in 10.0 mi SSW 5.8 mph - N/A   Mostly Cloudy
9:54 AM 77.0 °F - 70.0 °F 79% 30.17 in 10.0 mi SW 8.1 mph - N/A   Mostly Cloudy
10:54 AM 80.1 °F 83.8 °F 72.0 °F 76% 30.17 in 10.0 mi WSW 8.1 mph - N/A   Mostly Cloudy
11:54 AM 81.0 °F 85.8 °F 73.0 °F 77% 30.17 in 10.0 mi WSW 8.1 mph - N/A   Overcast
12:54 PM 81.0 °F 85.8 °F 73.0 °F 77% 30.15 in 10.0 mi SSW 11.5 mph - N/A   Mostly Cloudy
1:54 PM 81.0 °F 85.8 °F 73.0 °F 77% 30.15 in 10.0 mi SSW 10.4 mph - N/A   Mostly Cloudy
2:54 PM 84.9 °F 92.1 °F 73.9 °F 69% 30.12 in 10.0 mi WSW 10.4 mph - N/A   Mostly Cloudy
3:54 PM 86.0 °F 92.2 °F 72.0 °F 63% 30.10 in 10.0 mi WSW 9.2 mph 20.7 mph N/A   Mostly Cloudy
4:54 PM 87.1 °F 92.8 °F 71.1 °F 59% 30.08 in 10.0 mi WSW 11.5 mph - N/A   Mostly Cloudy
5:54 PM 84.0 °F 89.6 °F 72.0 °F 67% 30.07 in 10.0 mi WSW 9.2 mph - N/A   Mostly Cloudy
6:54 PM 82.0 °F 87.4 °F 73.0 °F 74% 30.08 in 10.0 mi WSW 6.9 mph - N/A   Mostly Cloudy
7:54 PM 78.1 °F - 73.0 °F 84% 30.07 in 10.0 mi SSW 4.6 mph - N/A   Mostly Cloudy
8:54 PM 75.0 °F - 71.1 °F 87% 30.07 in 9.0 mi SSW 5.8 mph - N/A   Mostly Cloudy
9:54 PM 73.0 °F - 71.1 °F 93% 30.09 in 10.0 mi South 3.5 mph - N/A   Mostly Cloudy
10:54 PM 73.0 °F - 71.1 °F 93% 30.08 in 8.0 mi SW 6.9 mph - N/A   Scattered Clouds
11:54 PM 73.0 °F - 70.0 °F 90% 30.08 in 10.0 mi SSW 4.6 mph - N/A   Scattered Clouds